Location: ???????
(55.7027°N, 37.3832°E)
Time: 11:30:41
(UTC+00:00)

Cosmos 2278 Rocket - Pass Details

Date: 14 April 2026
Orbit: 839 x 846 km, 71.0° (Epoch: 9 May)

Event Time Altitude Azimuth Distance (km) Brightness Sun altitude
Rises 18:52:55 0° 322° (NW) 3,419 7.2 -16.9°
Reaches altitude 10° 18:55:39 10° 312° (NW) 2,479 5.9 -17.2°
Maximum altitude 19:00:28 30° 254° (WSW) 1,491 3.7 -17.6°
Enters shadow 19:04:58 11° 197° (SSW) 2,360 4.2 -18.0°
